Tiempo cada hora Cavaillon

Hoy, 20 Enero, Miércoles

Tiempo Temperatura Precipitaciones Viento Presión Humedad
00:00 +7°C° 0 mm 4 mps 751 mmHg 76%
01:00 +7°C° 0.1 mm 4 mps 751 mmHg 79%
02:00 +7°C° 0.1 mm 4 mps 750 mmHg 81%
03:00 +7°C° 0.1 mm 4 mps 750 mmHg 83%
04:00 +7°C° 0.1 mm 4 mps 750 mmHg 84%
05:00 +7°C° 0.1 mm 4 mps 749 mmHg 86%
06:00 +7°C° 0 mm 4 mps 749 mmHg 88%
07:00 +8°C° 0.1 mm 5 mps 749 mmHg 87%
08:00 +8°C° 0.1 mm 6 mps 748 mmHg 86%
09:00 +9°C° 0.1 mm 6 mps 748 mmHg 85%
10:00 +9°C° 0.1 mm 7 mps 748 mmHg 82%
11:00 +10°C° 0.1 mm 8 mps 747 mmHg 79%
12:00 +10°C° 0.1 mm 9 mps 747 mmHg 76%
13:00 +10°C° 0.1 mm 9 mps 746 mmHg 75%
14:00 +11°C° 0.1 mm 9 mps 746 mmHg 74%
15:00 +11°C° 0.1 mm 10 mps 745 mmHg 73%
16:00 +9°C° 0 mm 10 mps 745 mmHg 76%
17:00 +9°C° 0 mm 10 mps 745 mmHg 79%
18:00 +8°C° 0 mm 10 mps 744 mmHg 82%
19:00 +8°C° 0.1 mm 10 mps 744 mmHg 82%
20:00 +10°C° 0.1 mm 9 mps 744 mmHg 81%
21:00 +10°C° 0.1 mm 9 mps 744 mmHg 81%
22:00 +10°C° 0.2 mm 9 mps 744 mmHg 81%
23:00 +9°C° 0.2 mm 8 mps 744 mmHg 81%

Mañana, 21 Enero, Jueves

Tiempo Temperatura Precipitaciones Viento Presión Humedad
00:00 +9°C° 0.2 mm 8 mps 744 mmHg 82%
01:00 +9°C° 0.2 mm 7 mps 744 mmHg 83%
02:00 +9°C° 0.2 mm 7 mps 743 mmHg 85%
03:00 +9°C° 0.2 mm 6 mps 743 mmHg 87%
04:00 +9°C° 0.3 mm 6 mps 743 mmHg 86%
05:00 +9°C° 0.3 mm 6 mps 744 mmHg 86%
06:00 +9°C° 0.3 mm 5 mps 744 mmHg 86%
07:00 +9°C° 0 mm 5 mps 744 mmHg 84%
08:00 +9°C° 0 mm 5 mps 744 mmHg 83%
09:00 +9°C° 0 mm 5 mps 744 mmHg 82%
10:00 +10°C° 0 mm 5 mps 744 mmHg 80%
11:00 +12°C° 0 mm 5 mps 744 mmHg 78%
12:00 +12°C° 0 mm 5 mps 744 mmHg 76%
13:00 +12°C° 0 mm 5 mps 743 mmHg 77%
14:00 +12°C° 0 mm 5 mps 742 mmHg 79%
15:00 +12°C° 0 mm 5 mps 742 mmHg 81%
16:00 +10°C° 0 mm 5 mps 742 mmHg 83%
17:00 +10°C° 0 mm 5 mps 742 mmHg 84%
18:00 +9°C° 0 mm 5 mps 742 mmHg 86%
19:00 +10°C° 0.1 mm 4 mps 742 mmHg 88%
20:00 +10°C° 0.1 mm 3 mps 741 mmHg 89%
21:00 +10°C° 0.1 mm 2 mps 741 mmHg 90%
22:00 +10°C° 0 mm 2 mps 741 mmHg 91%
23:00 +9°C° 0 mm 2 mps 741 mmHg 92%

Pasado mañana, 22 Enero, Viernes

Tiempo Temperatura Precipitaciones Viento Presión Humedad
00:00 +9°C° 0 mm 2 mps 741 mmHg 93%
01:00 +8°C° 0 mm 2 mps 741 mmHg 93%
02:00 +9°C° 0 mm 1 mps 740 mmHg 93%
03:00 +9°C° 0 mm 1 mps 740 mmHg 93%
04:00 +8°C° 0 mm 2 mps 740 mmHg 93%
05:00 +8°C° 0 mm 2 mps 739 mmHg 92%
06:00 +8°C° 0 mm 2 mps 739 mmHg 92%
07:00 +9°C° 0 mm 3 mps 738 mmHg 88%
08:00 +8°C° 0 mm 4 mps 737 mmHg 84%
09:00 +10°C° 0 mm 4 mps 737 mmHg 80%
10:00 +10°C° 0.1 mm 5 mps 736 mmHg 79%
11:00 +11°C° 0.1 mm 6 mps 735 mmHg 79%
12:00 +11°C° 0.1 mm 7 mps 734 mmHg 78%
13:00 +11°C° 0.6 mm 7 mps 733 mmHg 79%
14:00 +10°C° 0.6 mm 6 mps 732 mmHg 81%
15:00 +9°C° 0.6 mm 5 mps 731 mmHg 82%
16:00 +9°C° 0.3 mm 5 mps 732 mmHg 81%
17:00 +8°C° 0.3 mm 5 mps 733 mmHg 81%
18:00 +8°C° 0.3 mm 5 mps 735 mmHg 80%
19:00 +7°C° 0.1 mm 5 mps 735 mmHg 75%
20:00 +5°C° 0.1 mm 6 mps 736 mmHg 69%
21:00 +4°C° 0.1 mm 7 mps 737 mmHg 64%
22:00 +4°C° 0 mm 6 mps 737 mmHg 67%
23:00 +3°C° 0 mm 5 mps 738 mmHg 70%

23 Enero, Sábado

Tiempo Temperatura Precipitaciones Viento Presión Humedad
00:00 +3°C° 0 mm 4 mps 738 mmHg 73%
01:00 +3°C° 0 mm 4 mps 738 mmHg 74%
02:00 +3°C° 0 mm 3 mps 738 mmHg 76%
03:00 +3°C° 0 mm 3 mps 737 mmHg 78%
04:00 +3°C° 0.1 mm 3 mps 737 mmHg 79%
05:00 +4°C° 0.1 mm 2 mps 738 mmHg 80%
06:00 +4°C° 0.1 mm 2 mps 738 mmHg 81%
07:00 +4°C° 0.1 mm 2 mps 737 mmHg 82%
08:00 +4°C° 0.1 mm 3 mps 737 mmHg 82%
09:00 +5°C° 0.1 mm 3 mps 737 mmHg 82%
10:00 +5°C° 0 mm 4 mps 737 mmHg 78%
11:00 +6°C° 0 mm 4 mps 737 mmHg 74%
12:00 +7°C° 0 mm 5 mps 737 mmHg 70%
13:00 +7°C° 0 mm 6 mps 738 mmHg 65%
14:00 +8°C° 0 mm 6 mps 738 mmHg 61%
15:00 +8°C° 0 mm 7 mps 738 mmHg 56%
16:00 +7°C° 0 mm 6 mps 739 mmHg 60%
17:00 +5°C° 0 mm 5 mps 739 mmHg 63%
18:00 +4°C° 0 mm 4 mps 740 mmHg 67%
19:00 +4°C° 0 mm 3 mps 740 mmHg 68%
20:00 +3°C° 0 mm 3 mps 740 mmHg 70%
21:00 +4°C° 0 mm 2 mps 740 mmHg 71%
22:00 +4°C° 0 mm 2 mps 740 mmHg 71%
23:00 +5°C° 0 mm 1 mps 740 mmHg 71%

24 Enero, Domingo

Tiempo Temperatura Precipitaciones Viento Presión Humedad
00:00 +5°C° 0 mm 1 mps 740 mmHg 71%
01:00 +4°C° 0 mm 1 mps 739 mmHg 71%
02:00 +3°C° 0 mm 2 mps 739 mmHg 71%
03:00 +3°C° 0 mm 2 mps 738 mmHg 70%
04:00 +3°C° 0 mm 2 mps 738 mmHg 70%
05:00 +3°C° 0 mm 2 mps 738 mmHg 71%
06:00 +3°C° 0 mm 2 mps 738 mmHg 71%
07:00 +2°C° 0 mm 3 mps 738 mmHg 68%
08:00 +3°C° 0 mm 4 mps 738 mmHg 65%
09:00 +3°C° 0 mm 5 mps 739 mmHg 62%
10:00 +4°C° 0 mm 6 mps 739 mmHg 57%
11:00 +5°C° 0 mm 7 mps 739 mmHg 52%
12:00 +6°C° 0 mm 8 mps 739 mmHg 47%
13:00 +6°C° 0 mm 7 mps 740 mmHg 48%
14:00 +7°C° 0 mm 6 mps 740 mmHg 49%
15:00 +7°C° 0 mm 6 mps 740 mmHg 50%
16:00 +6°C° 0.1 mm 5 mps 741 mmHg 58%
17:00 +5°C° 0.1 mm 4 mps 742 mmHg 65%
18:00 +4°C° 0.1 mm 3 mps 742 mmHg 72%
19:00 +3°C° 0 mm 3 mps 743 mmHg 74%
20:00 +3°C° 0 mm 3 mps 743 mmHg 76%
21:00 +3°C° 0 mm 2 mps 743 mmHg 78%
22:00 +3°C° 0 mm 2 mps 743 mmHg 79%
23:00 +3°C° 0 mm 2 mps 744 mmHg 79%

25 Enero, Lunes

Tiempo Temperatura Precipitaciones Viento Presión Humedad
00:00 +3°C° 0 mm 2 mps 744 mmHg 80%
01:00 +2°C° 0 mm 2 mps 744 mmHg 82%
02:00 +2°C° 0 mm 2 mps 745 mmHg 83%
03:00 +1°C° 0 mm 3 mps 745 mmHg 85%
04:00 0°C° 0 mm 3 mps 746 mmHg 84%
05:00 0°C° 0 mm 3 mps 746 mmHg 84%
06:00 0°C° 0 mm 3 mps 747 mmHg 83%
07:00 0°C° 0 mm 4 mps 747 mmHg 76%
08:00 +1°C° 0 mm 5 mps 748 mmHg 69%
09:00 +2°C° 0 mm 6 mps 749 mmHg 62%
10:00 +3°C° 0 mm 6 mps 749 mmHg 57%
11:00 +4°C° 0 mm 7 mps 749 mmHg 53%
12:00 +4°C° 0 mm 7 mps 749 mmHg 48%
13:00 +5°C° 0 mm 7 mps 750 mmHg 48%
14:00 +5°C° 0 mm 7 mps 750 mmHg 47%
15:00 +5°C° 0 mm 6 mps 750 mmHg 46%
16:00 +3°C° 0 mm 5 mps 750 mmHg 52%
17:00 +2°C° 0 mm 5 mps 751 mmHg 57%
18:00 +1°C° 0 mm 4 mps 752 mmHg 62%
19:00 +1°C° 0 mm 4 mps 752 mmHg 63%
20:00 0°C° 0 mm 4 mps 753 mmHg 65%
21:00 0°C° 0 mm 4 mps 753 mmHg 66%
22:00 0°C° 0 mm 4 mps 753 mmHg 68%
23:00 0°C° 0 mm 4 mps 754 mmHg 70%
Mostrar más